Powrót do katalogu

STARLINK-31416

AktywnyŁącznośćVLEO
NORAD 59355·PAYLOAD·🇺🇸 United States

Wystrzelony Mar 31, 2024 z Cape Canaveral Space Force Station

Loading…

Następne Przeloty (najbliższe 24 godziny)

TLE

ŚwieżeSource: CelesTrak SupGP

Epoka: Sep 14, 2026, 22:06 UTC

1 59355C 24060H   26257.92131944  .00032465  00000+0  11763-2 0  2570
2 59355  42.9995 271.2310 0001425 265.5663  61.1253 15.27551418    16

Śledź STARLINK-31416 w czasie rzeczywistym z AllMySat

Download on the App Store